Voltar ao catálogo

ONEWEB-0388

AtivoComunicaçõesPO
NORAD 49314·PAYLOAD·🇬🇧 United Kingdom

Lançado Oct 14, 2021 de Vostochny Cosmodrome

Loading…

Próximas Passagens (próximas 24 horas)

TLE

AtualizadoSource: CelesTrak SupGP

Época: Sep 14, 2026, 16:02 UTC

1 49314C 21090AM  26257.66819861 -.00002269  00000+0 -56743-2 0  2574
2 49314  87.9102 287.1423 0002066  96.5300  17.6028 13.19728206    18

Acompanhe ONEWEB-0388 em tempo real com AllMySat

Download on the App Store